Weather History for Pittsfield, IL

Change the Weather History Date:

Thursday, January 23, 2014

  Actual Average (KUIN) Record (KUIN)
Temperature  
Mean Temperature 6 °F 26 °F  
Max Temperature 12 °F 35 °F 72 °F (1909)
Min Temperature 0 °F 18 °F -16 °F (1936)
Degree Days  
Heating Degree Days 59 39  
Month to date heating degree days 893  
Since 1 July heating degree days 3084  
Cooling Degree Days 0 0  
Month to date cooling degree days 0  
Year to date cooling degree days 0  
Moisture  
Dew Point -6 °F    
Average Humidity 62    
Maximum Humidity 75    
Minimum Humidity 49    
Precipitation  
Precipitation 0.00 in 0.04 in 1.62 in (1969)
Month to date precipitation 1.14  
Year to date precipitation 1.14  
Sea Level Pressure  
Sea Level Pressure 30.64 in    
Wind  
Wind Speed 13 mph (WNW)    
Max Wind Speed 21 mph    
Max Gust Speed 28 mph    
Visibility 10 miles    
Events      
T = Trace of Precipitation, MM = Missing Value Source: NWS Daily Summary

Daily Weather History Graph

Daily Weather History Graph

Search for Another Location

Airport:

Trip Planner

Search our weather history database for the weather conditions in past years. The results will help you decide how hot, cold, wet, or windy it might be!

Date:

Astronomy

Jan. 23, 2014 Rise Set
Actual Time 7:17 AM CST 5:12 PM CST
Civil Twilight 6:48 AM CST 5:41 PM CST
Nautical Twilight 6:16 AM CST 6:14 PM CST
Astronomical Twilight 5:44 AM CST 6:46 PM CST
Moon No Moon Rise 10:54 AM CST (1/23)
Length of Visible Light 10h 52m
Length of Day
9h 54m
Waning Gibbous, 55% of the Moon is Illuminated
Jan 23
Waning Gibbous
Jan 23
Last Quarter
Jan 30
New
Feb 6
First Quarter
Feb 14
Full

Hourly Weather History & Observations

Time (CST) Temp. Windchill Dew Point Humidity Pressure Visibility Wind Dir Wind Speed Gust Speed Precip Events Conditions
12:15 AM 4.1 °F -15.3 °F -5.8 °F 64% 30.40 in 10.0 mi NNW 17.3 mph 25.3 mph N/A   Scattered Clouds
12:35 AM 3.7 °F -17.4 °F -6.0 °F 64% 30.41 in 10.0 mi NNW 20.7 mph 27.6 mph N/A   Mostly Cloudy
12:55 AM 3.2 °F -18.1 °F -5.1 °F 68% 30.43 in 10.0 mi NW 20.7 mph 25.3 mph N/A   Mostly Cloudy
1:15 AM 2.8 °F -17.0 °F -6.9 °F 64% 30.44 in 10.0 mi NW 17.3 mph 23.0 mph N/A   Mostly Cloudy
1:35 AM 2.3 °F -15.7 °F -6.3 °F 67% 30.46 in 10.0 mi NW 13.8 mph 19.6 mph N/A   Mostly Cloudy
1:55 AM 2.1 °F -15.2 °F -6.7 °F 67% 30.47 in 10.0 mi NW 12.7 mph 18.4 mph N/A   Mostly Cloudy
2:15 AM 1.9 °F -13.8 °F -6.7 °F 67% 30.48 in 10.0 mi WNW 10.4 mph 18.4 mph N/A   Scattered Clouds
2:35 AM 1.6 °F -15.9 °F -7.6 °F 65% 30.49 in 10.0 mi NW 12.7 mph 18.4 mph N/A   Scattered Clouds
2:55 AM 1.4 °F -18.2 °F -8.0 °F 65% 30.50 in 10.0 mi NW 16.1 mph 21.9 mph N/A   Scattered Clouds
3:15 AM 1.2 °F -15.6 °F -8.0 °F 65% 30.50 in 10.0 mi NW 11.5 mph 20.7 mph N/A   Scattered Clouds
3:35 AM 1.0 °F -15.8 °F -8.3 °F 65% 30.51 in 10.0 mi WNW 11.5 mph - N/A   Scattered Clouds
3:55 AM 0.9 °F -16.8 °F -8.3 °F 65% 30.51 in 10.0 mi WNW 12.7 mph 18.4 mph N/A   Scattered Clouds
4:15 AM 0.5 °F -16.5 °F -8.1 °F 67% 30.52 in 10.0 mi NW 11.5 mph - N/A   Scattered Clouds
4:35 AM 0.5 °F -18.0 °F -8.5 °F 66% 30.53 in 10.0 mi WNW 13.8 mph 18.4 mph N/A   Scattered Clouds
4:55 AM 0.3 °F -16.7 °F -8.5 °F 66% 30.54 in 10.0 mi WNW 11.5 mph 20.7 mph N/A   Scattered Clouds
5:15 AM 0.1 °F -16.9 °F -8.5 °F 67% 30.55 in 10.0 mi WNW 11.5 mph 16.1 mph N/A   Scattered Clouds
5:35 AM 0.1 °F -17.7 °F -8.1 °F 68% 30.56 in 10.0 mi WNW 12.7 mph 17.3 mph N/A   Scattered Clouds
5:55 AM -0.2 °F -18.2 °F -8.5 °F 68% 30.57 in 10.0 mi NW 12.7 mph 17.3 mph N/A   Scattered Clouds
6:15 AM -0.4 °F -19.2 °F -8.5 °F 69% 30.58 in 10.0 mi NW 13.8 mph 18.4 mph N/A   Scattered Clouds
6:35 AM -0.0 °F -18.0 °F -8.5 °F 68% 30.60 in 10.0 mi NW 12.7 mph 20.7 mph N/A   Scattered Clouds
6:55 AM -0.2 °F -16.5 °F -8.3 °F 69% 30.61 in 10.0 mi WNW 10.4 mph - N/A   Scattered Clouds
7:15 AM -0.4 °F -19.2 °F -8.7 °F 68% 30.61 in 10.0 mi NW 13.8 mph - N/A   Scattered Clouds
7:35 AM -0.4 °F -17.6 °F -8.7 °F 68% 30.62 in 10.0 mi NW 11.5 mph 19.6 mph N/A   Scattered Clouds
7:55 AM -0.4 °F -16.7 °F -8.7 °F 68% 30.63 in 10.0 mi WNW 10.4 mph 16.1 mph N/A   Scattered Clouds
8:15 AM 0.1 °F -19.2 °F -8.5 °F 67% 30.63 in 10.0 mi NW 15.0 mph - N/A   Scattered Clouds
8:35 AM 0.1 °F -19.8 °F -8.7 °F 66% 30.65 in 10.0 mi NW 16.1 mph 20.7 mph N/A   Scattered Clouds
8:55 AM 0.5 °F -17.3 °F -8.3 °F 66% 30.66 in 10.0 mi WNW 12.7 mph - N/A   Scattered Clouds
9:15 AM 0.9 °F -18.9 °F -8.5 °F 65% 30.67 in 10.0 mi WNW 16.1 mph 19.6 mph N/A   Scattered Clouds
9:35 AM 1.4 °F -16.9 °F -8.0 °F 65% 30.68 in 10.0 mi WNW 13.8 mph 18.4 mph N/A   Clear
9:55 AM 1.9 °F -16.2 °F -7.8 °F 64% 30.69 in 10.0 mi WNW 13.8 mph 19.6 mph N/A   Clear
10:15 AM 2.8 °F -13.5 °F -7.8 °F 61% 30.70 in 10.0 mi WNW 11.5 mph 19.6 mph N/A   Scattered Clouds
10:35 AM 3.9 °F -12.2 °F -7.2 °F 60% 30.71 in 10.0 mi WNW 11.5 mph 19.6 mph N/A   Scattered Clouds
10:55 AM 4.8 °F -12.5 °F -6.9 °F 59% 30.71 in 10.0 mi NW 13.8 mph 19.6 mph N/A   Scattered Clouds
11:15 AM 5.7 °F -11.4 °F -5.8 °F 59% 30.71 in 10.0 mi NW 13.8 mph 19.6 mph N/A   Scattered Clouds
11:35 AM 6.4 °F -11.1 °F -5.1 °F 59% 30.71 in 10.0 mi WNW 15.0 mph 18.4 mph N/A   Scattered Clouds
11:55 AM 7.2 °F -8.9 °F -5.4 °F 56% 30.70 in 10.0 mi WNW 12.7 mph 21.9 mph N/A   Scattered Clouds
12:15 PM 8.1 °F -8.4 °F -4.4 °F 57% 30.70 in 10.0 mi WNW 13.8 mph 18.4 mph N/A   Scattered Clouds
12:35 PM 8.1 °F -7.7 °F -5.1 °F 55% 30.69 in 10.0 mi WNW 12.7 mph - N/A   Clear
12:55 PM 9.1 °F -5.6 °F -4.0 °F 55% 30.69 in 10.0 mi WNW 11.5 mph 18.4 mph N/A   Clear
1:15 PM 9.9 °F -6.1 °F -3.6 °F 54% 30.68 in 10.0 mi NW 13.8 mph 20.7 mph N/A   Scattered Clouds
1:35 PM 10.0 °F -5.2 °F -4.2 °F 53% 30.68 in 10.0 mi WNW 12.7 mph - N/A   Scattered Clouds
1:55 PM 10.6 °F -5.2 °F -3.3 °F 54% 30.68 in 10.0 mi WNW 13.8 mph 18.4 mph N/A   Clear
2:15 PM 11.1 °F -3.2 °F -2.9 °F 53% 30.69 in 10.0 mi WNW 11.5 mph 19.6 mph N/A   Clear
2:35 PM 11.7 °F -3.2 °F -2.7 °F 53% 30.69 in 10.0 mi NW 12.7 mph 18.4 mph N/A   Clear
2:55 PM 12.0 °F -2.7 °F -2.9 °F 51% 30.69 in 10.0 mi West 12.7 mph 16.1 mph N/A   Clear
3:15 PM 12.0 °F -1.3 °F -4.0 °F 49% 30.70 in 10.0 mi WNW 10.4 mph 16.1 mph N/A   Clear
3:35 PM 12.2 °F -1.0 °F -3.1 °F 50% 30.70 in 10.0 mi WNW 10.4 mph 18.4 mph N/A   Scattered Clouds
3:55 PM 12.2 °F -0.2 °F -3.6 °F 49% 30.70 in 10.0 mi WNW 9.2 mph - N/A   Scattered Clouds
4:15 PM 11.8 °F -2.3 °F -3.6 °F 50% 30.70 in 10.0 mi NW 11.5 mph 17.3 mph N/A   Clear
4:35 PM 11.3 °F -4.3 °F -4.0 °F 50% 30.71 in 10.0 mi NW 13.8 mph - N/A   Clear
4:55 PM 11.1 °F -0.6 °F -4.2 °F 50% 30.71 in 10.0 mi WNW 8.1 mph - N/A   Clear
5:15 PM 10.4 °F 0.8 °F -4.0 °F 52% 30.71 in 10.0 mi WNW 5.8 mph - N/A   Clear
5:35 PM 9.9 °F 0.2 °F -4.0 °F 54% 30.71 in 10.0 mi WNW 5.8 mph - N/A   Clear
5:55 PM 8.8 °F 0.4 °F -3.3 °F 58% 30.71 in 10.0 mi NW 4.6 mph - N/A   Clear
6:15 PM 7.9 °F 1.2 °F -2.9 °F 61% 30.72 in 10.0 mi NW 3.5 mph - N/A   Clear
6:35 PM 7.2 °F 0.3 °F -2.7 °F 64% 30.72 in 10.0 mi WNW 3.5 mph - N/A   Clear
6:55 PM 7.3 °F 0.5 °F -3.6 °F 61% 30.72 in 10.0 mi WNW 3.5 mph - N/A   Scattered Clouds
7:15 PM 7.2 °F 0.3 °F -4.0 °F 60% 30.72 in 10.0 mi West 3.5 mph - N/A   Clear
7:35 PM 6.4 °F - -3.8 °F 63% 30.72 in 10.0 mi Calm Calm - N/A   Clear
7:55 PM 5.9 °F - -2.7 °F 68% 30.72 in 10.0 mi Calm Calm - N/A   Clear
8:35 PM 5.9 °F - -3.8 °F 64% 30.71 in 10.0 mi Calm Calm - N/A   Clear
8:55 PM 5.0 °F - -3.5 °F 68% 30.70 in 10.0 mi Calm Calm - N/A   Clear
9:15 PM 5.5 °F - -3.6 °F 66% 30.70 in 10.0 mi Calm Calm - N/A   Clear
9:55 PM 5.0 °F - -4.0 °F 66% 30.69 in 10.0 mi Calm Calm - N/A   Clear
10:15 PM 4.1 °F - -3.1 °F 72% 30.69 in 10.0 mi Calm Calm - N/A   Clear
10:35 PM 3.4 °F -4.0 °F -2.9 °F 75% 30.68 in 10.0 mi SSW 3.5 mph - N/A   Clear
10:55 PM 3.7 °F -3.6 °F -2.7 °F 74% 30.68 in 10.0 mi SW 3.5 mph - N/A   Clear
11:15 PM 3.7 °F -3.6 °F -2.9 °F 74% 30.68 in 10.0 mi SW 3.5 mph - N/A   Clear
11:35 PM 3.9 °F -3.4 °F -3.1 °F 73% 30.67 in 10.0 mi SW 3.5 mph - N/A   Clear
11:55 PM 4.1 °F -5.1 °F -3.3 °F 71% 30.66 in 10.0 mi SSW 4.6 mph - N/A   Clear